This is the latest recevied weather packets stored in our database for station/object DH0DM-13. If no packets are shown the sender has not sent any weather packets the latest 10 day(s).
| Time | Temp. | Humidity | Pressure | Rain* | Wind** | Luminosity | Snow |
|---|---|---|---|---|---|---|---|
| 1777995831 | 18.89° C | 68% | 980.8 hPa | 0.25 mm | 4.47 m/s, 30° | - | - |
| 1777995230 | 19.44° C | 66% | 980.9 hPa | 0.25 mm | 0.89 m/s, 57° | - | - |
| 1777994629 | 19.44° C | 66% | 981 hPa | 0.25 mm | 1.34 m/s, 319° | - | - |
| 1777994028 | 18.89° C | 66% | 981.2 hPa | 0.25 mm | 5.36 m/s, 342° | - | - |
| 1777993429 | 18.89° C | 64% | 981 hPa | 0.25 mm | 3.58 m/s, 341° | - | - |
| 1777992826 | 18.89° C | 64% | 980.9 hPa | 0.25 mm | 2.24 m/s, 338° | - | - |
| 1777992225 | 18.89° C | 63% | 981 hPa | 0.25 mm | 4.02 m/s, 269° | - | - |
| 1777991624 | 18.89° C | 63% | 981.2 hPa | 0.25 mm | 1.79 m/s, 312° | - | - |
| 1777991023 | 18.89° C | 61% | 981.2 hPa | 0.25 mm | 3.13 m/s, 44° | - | - |
| 1777990422 | 19.44° C | 60% | 981.1 hPa | 0.25 mm | 2.68 m/s, 23° | - | - |
| 1777989821 | 20° C | 59% | 981.3 hPa | 0.25 mm | 0 m/s | - | - |
| 1777989220 | 20.56° C | 58% | 981.4 hPa | 0.25 mm | 1.34 m/s, 351° | - | - |
| 1777988619 | 20.56° C | 60% | 981.5 hPa | 0.25 mm | 0.89 m/s, 304° | - | - |
| 1777988019 | 21.11° C | 60% | 981.4 hPa | 0.25 mm | 0.45 m/s, 340° | - | - |
| 1777987418 | 21.11° C | 56% | 981.4 hPa | 0.25 mm | 1.79 m/s, 357° | - | - |
| 1777986817 | 21.67° C | 59% | 981.6 hPa | 0.25 mm | 3.13 m/s, 328° | - | - |
| 1777986219 | 21.67° C | 58% | 981.7 hPa | 0.25 mm | 6.71 m/s, 338° | - | - |
| 1777985615 | 21.11° C | 59% | 981.7 hPa | 0.25 mm | 2.68 m/s, 324° | - | - |
| 1777985014 | 21.11° C | 60% | 981.7 hPa | 0.25 mm | 4.47 m/s, 306° | - | - |
| 1777984413 | 20.56° C | 61% | 981.8 hPa | 0.25 mm | 5.81 m/s, 354° | - | - |
| 1777983812 | 21.67° C | 59% | 981.8 hPa | 0.25 mm | 2.68 m/s, 292° | - | - |
| 1777983211 | 21.11° C | 60% | 981.8 hPa | 0.25 mm | 4.02 m/s, 302° | - | - |
| 1777982610 | 21.67° C | 60% | 981.9 hPa | 0.25 mm | 0 m/s | - | - |
| 1777982009 | 22.22° C | 60% | 981.9 hPa | 0.25 mm | 2.24 m/s, 225° | - | - |
| 1777981409 | 21.67° C | 59% | 981.8 hPa | 0.25 mm | 8.49 m/s, 340° | - | - |
* Rain since midnight (hover to see other rain measurements)
** Current wind speed in m/s (hover to see current wind gust speed)